{"data":{"norad_id":53287,"epoch":"2026-05-25T03:48:52.690752Z","epoch_age_seconds":54528,"freshness":"FRESH","line1":"1 53287U 22086AX  26145.15894318 -.00000664  00000+0 -23637-4 0  9992","line2":"2 53287  53.2139 200.8361 0001140  89.8818 270.2304 15.08832421212735","mean_motion":15.08832421,"eccentricity":0.000114,"inclination_deg":53.2139,"raan_deg":200.8361,"arg_perigee_deg":89.8818,"mean_anomaly_deg":270.2304,"bstar":-2.3637e-5,"rev_number":21273,"period_min":95.438034069126,"perigee_km":538.97791402678,"apogee_km":540.55519603732,"semimajor_km":6917.903555032,"source":"CELESTRAK","updated_at":"2026-05-25T13:38:17.390331Z"}}